Regional Weather Roundup
Issued by NWS New Orleans/Baton Rouge, LA

Home | Current Version | Previous Version | Text Only | Print | Product List | Glossary On
Versions: 1 2 3 4 5 6 7 8 9 10 11 12 13 14 15 16 17 18 19 20 21 22 23 24 25 26 27 28 29 30 31 32 33 34 35 36 37 38 39 40 41 42 43 44 45 46 47 48 49 50
719
ASUS44 KLIX 250010
RWRLIX
NEW ORLEANS REGIONAL WEATHER ROUNDUP
NATIONAL WEATHER SERVICE NEW ORLEANS LA
700 PM CDT FRI OCT 24 2014

NOTE: "FAIR" INDICATES FEW OR NO CLOUDS BELOW 12,000 FEET WITH NO
      SIGNIFICANT WEATHER AND/OR OBSTRUCTIONS TO VISIBILITY.
      SKY/WX - SKY CONDITION AND SIGNIFICANT WEATHER.
      TMP - AIR TEMPERATURE.     DP    - DEWPOINT TEMPERATURE.
      RH  - RELATIVE HUMIDITY.   PRES  - PRESSURE.
      HI  - HEAT INDEX.          WCI   - WIND CHILL INDEX.

*  THESE STATIONS ARE NOT NWS OR FAA STATIONS AND ARE NOT UNDER
   NWS QUALITY CONTROL.

LAZ038-040-048-061>063-065>067-069-250100-
SOUTHEAST LOUISIANA

CITY           SKY/WX    TMP DP  RH WIND       PRES   REMARKS
N.O. AUDUBON     N/A     69  50  50 MISG        N/A
6HR MIN TEMP:  69; 6HR MAX TEMP:  76;

N.O. INTL ARPT PTCLDY    69  49  48 NW3       30.06S
6HR MIN TEMP:  69; 6HR MAX TEMP:  76;

N.O. LAKEFRONT CLEAR     72  54  53 N10       30.06R
6HR MIN TEMP:  69; 6HR MAX TEMP:  74;

N.O. DOWNTOWN*   N/A     72  46  40 CALM      30.06S
6HR MIN TEMP:  72; 6HR MAX TEMP:  75;

SLIDELL        CLEAR     61  53  75 CALM      30.05S
6HR MIN TEMP:  61; 6HR MAX TEMP:  78;

BATON ROUGE    CLEAR     64  49  57 CALM      30.08S
6HR MIN TEMP:  64; 6HR MAX TEMP:  77;

BOOTHVILLE     CLEAR     67  55  65 CALM      30.05R
6HR MIN TEMP:  67; 6HR MAX TEMP:  73;

BELLE CHASSE   PTCLDY    60  51  72 CALM      30.06R
6HR MIN TEMP:  60; 6HR MAX TEMP:  76;

BOGALUSA*        N/A     63  47  55 CALM      30.08R
6HR MIN TEMP:  63; 6HR MAX TEMP:  78;

NEW ROADS*       N/A     63  51  64 CALM      30.10R
6HR MIN TEMP:  63; 6HR MAX TEMP:  74;

GONZALES*        N/A     61  55  83 CALM      30.07S
6HR MIN TEMP:  61; 6HR MAX TEMP:  76;

HAMMOND*       CLEAR     63  50  63 CALM      30.09R
HOUMA*         CLEAR     68  48  49 NW3       30.07R
PORT FOURCHON* CLEAR     70  50  49 N8        30.09R

$$

MSZ070-080>082-250100-
SOUTHERN MISSISSIPPI

CITY           SKY/WX    TMP DP  RH WIND       PRES   REMARKS
MCCOMB         CLEAR     63  48  58 N5        30.08R
6HR MIN TEMP:  63; 6HR MAX TEMP:  76;

GULFPORT       CLEAR     65  50  58 CALM      30.04R
6HR MIN TEMP:  65; 6HR MAX TEMP:  78;

BILOXI         CLEAR     70  49  48 N5        30.04R
6HR MIN TEMP:  70; 6HR MAX TEMP:  78;

PASCAGOULA     CLEAR     57  50  77 CALM      30.04R
6HR MIN TEMP:  56; 6HR MAX TEMP:  79;

STENNIS ARPT*  CLEAR     61  48  63 CALM      30.06R

$$

COASTAL OBSERVATIONS
LAKE AND NEARSHORE STATIONS

STATION/POSITION TIME  TEMP    WIND        PRES    WAVE
                       AIR SEA DIR/SP/G            HT/PER
                 (UTC) (F)     (DEG/KT/KT) (MB)    (FT/S)
PASCAGOULA       0000   70     350/  5/  7 1016.6
WAVELAND YACHT   0000   71     340/  5/  6 1016.8
GRAND ISLE       0000   72 73   10/  8/ 12 1018.4
SOUTHWEST PASS   0000   72 81              1017.8
NEW CANAL        0000   72 71  340/  5/  8 1018.1
SHELL BEACH      0000   71 68  310/ 10/ 11 1017.4

OFFSHORE STATIONS

STATION/POSITION TIME  TEMP    WIND        PRES    WAVE
                       AIR SEA DIR/SP/G            HT/PER
                 (UTC) (F)     (DEG/KT/KT) (MB)    (FT/S)

$$




USA.gov is the U.S. government's official web portal to all federal, state and local government web resources and services.